,,,PA_Meas_PMT16A,,PR_Meas_QMR101_102,,RH_Meas_QMH101,,SR_Meas_QMS101,,TA_Meas_QMH101,,GenWind,,GenWind,
date,time,status,PA,status,PR,status,RH,status,SR,status,TA,status,DirAvg,status,SpdAvg,
2009-01-11, 00:00:04,VALID,1003.35,VALID,0,VALID,82.1096,VALID,0,VALID,25.1813,VALID,3,VALID,0.707422,
2009-01-11, 00:01:04,VALID,1003.37,VALID,0,VALID,82.1936,VALID,0,VALID,25.1618,VALID,352,VALID,0.8125,
2009-01-11, 00:02:04,VALID,1003.34,VALID,0,VALID,82.4148,VALID,0,VALID,25.1442,VALID,347,VALID,0.554688,
2009-01-11, 00:03:04,VALID,1003.35,VALID,0,VALID,82.4301,VALID,0,VALID,25.1229,VALID,358,VALID,0.573828,
2009-01-11, 00:04:04,VALID,1003.32,VALID,0,VALID,82.3614,VALID,0,VALID,25.1034,VALID,347,VALID,1.20586,
2009-01-11, 00:05:04,VALID,1003.34,VALID,0,VALID,82.4148,VALID,0,VALID,25.1248,VALID,329,VALID,0.776953,
2009-01-11, 00:06:04,VALID,1003.35,VALID,0,VALID,82.4987,VALID,0,VALID,25.1053,VALID,347,VALID,0.440625,
2009-01-11, 00:07:04,VALID,1003.32,VALID,0,VALID,82.4835,VALID,0,VALID,25.1053,VALID,349,VALID,1.03086,
2009-01-11, 00:08:04,VALID,1003.29,VALID,0,VALID,82.4835,VALID,0,VALID,25.1053,VALID,355,VALID,0.982422,
2009-01-11, 00:09:04,VALID,1003.29,VALID,0,VALID,82.4911,VALID,0,VALID,25.1248,VALID,341,VALID,0.794141,
2009-01-11, 00:10:04,VALID,1003.27,VALID,0,VALID,82.6208,VALID,0,VALID,25.0839,VALID,345,VALID,0.787109,
2009-01-11, 00:11:04,VALID,1003.24,VALID,0,VALID,82.6513,VALID,0,VALID,25.0663,VALID,341,VALID,0.732422,
2009-01-11, 00:12:04,VALID,1003.22,VALID,0,VALID,82.6437,VALID,0,VALID,25.0469,VALID,295,VALID,0.792578,
2009-01-11, 00:13:04,VALID,1003.24,VALID,0,VALID,82.6894,VALID,0,VALID,25.0663,VALID,353,VALID,0.789063,
2009-01-11, 00:14:04,VALID,1003.24,VALID,0,VALID,82.8039,VALID,0,VALID,25.0469,VALID,4,VALID,0.990625,
2009-01-11, 00:15:04,VALID,1003.26,VALID,0,VALID,82.7276,VALID,0,VALID,25.0255,VALID,357,VALID,0.414844,
2009-01-11, 00:16:04,VALID,1003.27,VALID,0,VALID,82.5521,VALID,0,VALID,25.0663,VALID,315,VALID,0.981641,
2009-01-11, 00:17:04,VALID,1003.26,VALID,0,VALID,82.5521,VALID,0,VALID,25.0858,VALID,345,VALID,0.947266,
2009-01-11, 00:18:04,VALID,1003.28,VALID,0,VALID,82.5826,VALID,0,VALID,25.045,VALID,351,VALID,0.533984,
2009-01-11, 00:19:04,VALID,1003.25,VALID,0,VALID,82.6971,VALID,0,VALID,25.0255,VALID,340,VALID,0.537891,
2009-01-11, 00:20:04,VALID,1003.27,VALID,0,VALID,82.7505,VALID,0,VALID,25.0079,VALID,347,VALID,0.916797,
2009-01-11, 00:21:04,VALID,1003.25,VALID,0,VALID,82.8115,VALID,0,VALID,24.9866,VALID,324,VALID,0.748828,
2009-01-11, 00:22:04,VALID,1003.2,VALID,0,VALID,82.7581,VALID,0,VALID,24.969,VALID,351,VALID,0.597266,
2009-01-11, 00:23:04,VALID,1003.18,VALID,0,VALID,82.987,VALID,0,VALID,24.9495,VALID,354,VALID,0.216797,
2009-01-11, 00:24:04,VALID,1003.16,VALID,0,VALID,83.0022,VALID,0,VALID,24.93,VALID,353,VALID,0.547266,
2009-01-11, 00:25:04,VALID,1003.14,VALID,0,VALID,83.2235,VALID,0,VALID,24.8911,VALID,331,VALID,0.376172,
2009-01-11, 00:26:04,VALID,1003.1,VALID,0,VALID,83.3455,VALID,0,VALID,24.8522,VALID,340,VALID,0.189844,
2009-01-11, 00:27:04,VALID,1003.11,VALID,0,VALID,83.4752,VALID,0,VALID,24.7919,VALID,338,VALID,0.519922,
2009-01-11, 00:28:04,VALID,1003.09,VALID,0,VALID,83.5286,VALID,0,VALID,24.7937,VALID,345,VALID,0.766797,
2009-01-11, 00:29:04,VALID,1003.11,VALID,0,VALID,83.3684,VALID,0,VALID,24.8132,VALID,342,VALID,0.586719,
2009-01-11, 00:30:04,VALID,1003.12,VALID,0,VALID,83.2845,VALID,0,VALID,24.8327,VALID,343,VALID,0.282422,
2009-01-11, 00:31:04,VALID,1003.1,VALID,0,VALID,83.4142,VALID,0,VALID,24.854,VALID,342,VALID,0.382813,
2009-01-11, 00:32:04,VALID,1003.1,VALID,0,VALID,83.7422,VALID,0,VALID,24.8132,VALID,339,VALID,0.437109,
2009-01-11, 00:33:04,VALID,1003.12,VALID,0,VALID,84.0092,VALID,0,VALID,24.7353,VALID,339,VALID,0.0265625,
2009-01-11, 00:34:04,VALID,1003.1,VALID,0,VALID,84.3983,VALID,0,VALID,24.6361,VALID,339,VALID,0.184375,
2009-01-11, 00:35:04,VALID,1003.09,VALID,0,VALID,84.7416,VALID,0,VALID,24.599,VALID,339,VALID,0,
2009-01-11, 00:36:04,VALID,1003.09,VALID,0,VALID,85.1002,VALID,0,VALID,24.5212,VALID,339,VALID,0,
2009-01-11, 00:37:04,VALID,1003.07,VALID,0,VALID,85.4053,VALID,0,VALID,24.4628,VALID,339,VALID,0.220313,
2009-01-11, 00:38:04,VALID,1003.07,VALID,0,VALID,85.7562,VALID,0.100563,VALID,24.3849,VALID,339,VALID,0.249609,
2009-01-11, 00:39:04,VALID,1003.06,VALID,0,VALID,86.2521,VALID,0,VALID,24.2857,VALID,339,VALID,0.167969,
2009-01-11, 00:40:04,VALID,1003.05,VALID,0,VALID,86.6717,VALID,0,VALID,24.2273,VALID,339,VALID,0.246094,
2009-01-11, 00:41:04,VALID,1003.05,VALID,0,VALID,86.9006,VALID,0,VALID,24.1902,VALID,339,VALID,0.0898438,
2009-01-11, 00:42:04,VALID,1003.05,VALID,0,VALID,87.0455,VALID,0,VALID,24.13,VALID,339,VALID,0.287891,
2009-01-11, 00:43:04,VALID,1003.04,VALID,0,VALID,87.2057,VALID,0,VALID,24.1123,VALID,339,VALID,0.220313,
2009-01-11, 00:44:04,VALID,1003.03,VALID,0,VALID,87.3125,VALID,0,VALID,24.0734,VALID,330,VALID,0.225391,
2009-01-11, 00:45:04,VALID,1003.02,VALID,0,VALID,87.4575,VALID,0,VALID,24.0326,VALID,330,VALID,0.280078,
2009-01-11, 00:46:04,VALID,1003.01,VALID,0,VALID,87.5338,VALID,0,VALID,24.0132,VALID,330,VALID,0.144531,
2009-01-11, 00:47:04,VALID,1002.97,VALID,0,VALID,87.7245,VALID,0,VALID,24.015,VALID,330,VALID,0.372656,
2009-01-11, 00:48:04,VALID,1002.96,VALID,0,VALID,87.9305,VALID,0,VALID,23.9761,VALID,329,VALID,0.526172,
2009-01-11, 00:49:04,VALID,1002.98,VALID,0,VALID,88.0144,VALID,0,VALID,23.9566,VALID,337,VALID,0.379687,
2009-01-11, 00:50:04,VALID,1002.95,VALID,0,VALID,88.1288,VALID,0,VALID,23.8964,VALID,343,VALID,0.461328,
2009-01-11, 00:51:04,VALID,1002.95,VALID,0,VALID,88.2738,VALID,0,VALID,23.8593,VALID,343,VALID,0.269531,
2009-01-11, 00:52:04,VALID,1002.91,VALID,0,VALID,88.5255,VALID,0,VALID,23.8203,VALID,343,VALID,0.371094,
2009-01-11, 00:53:04,VALID,1002.93,VALID,0,VALID,88.6628,VALID,0,VALID,23.7619,VALID,343,VALID,0.267578,
2009-01-11, 00:54:04,VALID,1002.91,VALID,0,VALID,88.8993,VALID,0,VALID,23.7425,VALID,343,VALID,0.176172,
2009-01-11, 00:55:04,VALID,1002.87,VALID,0,VALID,89.0519,VALID,0,VALID,23.6823,VALID,343,VALID,0.266406,
2009-01-11, 00:56:04,VALID,1002.86,VALID,0,VALID,89.1664,VALID,0,VALID,23.6452,VALID,343,VALID,0.311719,
2009-01-11, 00:57:04,VALID,1002.86,VALID,0,VALID,89.3571,VALID,0,VALID,23.5655,VALID,343,VALID,0.129297,
2009-01-11, 00:58:04,VALID,1002.84,VALID,0,VALID,89.6088,VALID,0,VALID,23.5478,VALID,343,VALID,0.175,
2009-01-11, 00:59:04,VALID,1002.81,VALID,0,VALID,89.8224,VALID,0,VALID,23.4877,VALID,343,VALID,0.352344,
2009-01-11, 01:00:04,VALID,1002.8,VALID,0,VALID,89.9216,VALID,0,VALID,23.4098,VALID,343,VALID,0.331641,
2009-01-11, 01:01:04,VALID,1002.78,VALID,0,VALID,90.2725,VALID,0,VALID,23.3904,VALID,343,VALID,0.170312,
2009-01-11, 01:02:04,VALID,1002.77,VALID,0,VALID,90.3946,VALID,0,VALID,23.3514,VALID,343,VALID,0.404297,
2009-01-11, 01:03:04,VALID,1002.71,VALID,0,VALID,90.5701,VALID,0.100563,VALID,23.3125,VALID,343,VALID,0.253906,
2009-01-11, 01:04:04,VALID,1002.69,VALID,0,VALID,90.7532,VALID,0,VALID,23.2948,VALID,343,VALID,0.291016,
2009-01-11, 01:05:04,VALID,1002.69,VALID,0,VALID,90.9134,VALID,0,VALID,23.2559,VALID,343,VALID,0.195313,
2009-01-11, 01:06:04,VALID,1002.68,VALID,0,VALID,91.0736,VALID,0,VALID,23.2152,VALID,343,VALID,0.257813,
2009-01-11, 01:07:04,VALID,1002.62,VALID,0,VALID,91.1728,VALID,0,VALID,23.1957,VALID,343,VALID,0.171875,
2009-01-11, 01:08:04,VALID,1002.63,VALID,0,VALID,91.3482,VALID,0,VALID,23.217,VALID,343,VALID,0.189844,
2009-01-11, 01:09:04,VALID,1002.59,VALID,0,VALID,91.4703,VALID,0,VALID,23.1975,VALID,343,VALID,0.224609,
2009-01-11, 01:10:04,VALID,1002.57,VALID,0,VALID,91.2796,VALID,0.100563,VALID,23.1763,VALID,343,VALID,0.269531,
2009-01-11, 01:11:04,VALID,1002.56,VALID,0,VALID,91.5084,VALID,0.100563,VALID,23.1568,VALID,343,VALID,0.224609,
2009-01-11, 01:12:04,VALID,1002.51,VALID,0,VALID,91.8212,VALID,0,VALID,23.1763,VALID,343,VALID,0.440234,
2009-01-11, 01:13:04,VALID,1002.45,VALID,0,VALID,91.8441,VALID,0.100563,VALID,23.1957,VALID,343,VALID,0.0355469,
2009-01-11, 01:14:04,VALID,1002.45,VALID,0,VALID,91.8899,VALID,0,VALID,23.2347,VALID,343,VALID,0.122266,
2009-01-11, 01:15:04,VALID,1002.44,VALID,0,VALID,91.7754,VALID,0.100563,VALID,23.2541,VALID,343,VALID,0,
2009-01-11, 01:16:04,VALID,1002.38,VALID,0,VALID,91.661,VALID,0,VALID,23.3143,VALID,343,VALID,0.00234375,
2009-01-11, 01:17:04,VALID,1002.39,VALID,0,VALID,91.3711,VALID,0.100563,VALID,23.2931,VALID,343,VALID,0.425391,
2009-01-11, 01:18:04,VALID,1002.33,VALID,0,VALID,91.2338,VALID,0,VALID,23.2931,VALID,343,VALID,0.275,
2009-01-11, 01:19:04,VALID,1002.35,VALID,0,VALID,91.2262,VALID,0.100563,VALID,23.332,VALID,347,VALID,0.516797,
2009-01-11, 01:20:04,VALID,1002.34,VALID,0,VALID,91.0583,VALID,0,VALID,23.3904,VALID,347,VALID,0.300391,
2009-01-11, 01:21:04,VALID,1002.33,VALID,0,VALID,90.7074,VALID,0.100563,VALID,23.4505,VALID,329,VALID,0.584766,
2009-01-11, 01:22:04,VALID,1002.33,VALID,0,VALID,90.4327,VALID,0,VALID,23.4293,VALID,332,VALID,0.462891,
2009-01-11, 01:23:04,VALID,1002.32,VALID,0,VALID,90.2878,VALID,0,VALID,23.3904,VALID,333,VALID,0.454297,
2009-01-11, 01:24:04,VALID,1002.29,VALID,0,VALID,90.1886,VALID,0.100563,VALID,23.2931,VALID,334,VALID,0.349609,
2009-01-11, 01:25:04,VALID,1002.29,VALID,0,VALID,90.3641,VALID,0.100563,VALID,23.194,VALID,334,VALID,0.364453,
2009-01-11, 01:26:04,VALID,1002.25,VALID,0,VALID,90.6769,VALID,0,VALID,23.1374,VALID,334,VALID,0.328906,
2009-01-11, 01:27:04,VALID,1002.26,VALID,0,VALID,90.9515,VALID,0,VALID,23.1197,VALID,334,VALID,0.329688,
2009-01-11, 01:28:04,VALID,1002.24,VALID,0,VALID,91.2948,VALID,0.100563,VALID,23.079,VALID,337,VALID,0.375391,
2009-01-11, 01:29:04,VALID,1002.23,VALID,0,VALID,91.6229,VALID,0,VALID,23.079,VALID,337,VALID,0.465234,
2009-01-11, 01:30:04,VALID,1002.21,VALID,0,VALID,91.8288,VALID,0.100563,VALID,23.0984,VALID,328,VALID,0.532422,
2009-01-11, 01:31:04,VALID,1002.22,VALID,0,VALID,91.9662,VALID,0.100563,VALID,23.1374,VALID,335,VALID,0.484375,
2009-01-11, 01:32:04,VALID,1002.21,VALID,0,VALID,91.8517,VALID,0.100563,VALID,23.2559,VALID,340,VALID,0.119141,
2009-01-11, 01:33:04,VALID,1002.18,VALID,0,VALID,91.5923,VALID,0,VALID,23.2736,VALID,341,VALID,0.344922,
2009-01-11, 01:34:04,VALID,1002.17,VALID,0,VALID,91.3864,VALID,0.100563,VALID,23.332,VALID,339,VALID,0.0382813,
2009-01-11, 01:35:04,VALID,1002.19,VALID,0,VALID,91.3024,VALID,0.100563,VALID,23.3904,VALID,334,VALID,0.457031,
2009-01-11, 01:36:04,VALID,1002.16,VALID,0,VALID,91.0049,VALID,0.100563,VALID,23.4682,VALID,332,VALID,0.0105469,
2009-01-11, 01:37:04,VALID,1002.16,VALID,0,VALID,90.593,VALID,0.100563,VALID,23.5266,VALID,331,VALID,0.575,
2009-01-11, 01:38:04,VALID,1002.16,VALID,0,VALID,90.3412,VALID,0.100563,VALID,23.5655,VALID,328,VALID,0.402734,
2009-01-11, 01:39:04,VALID,1002.12,VALID,0,VALID,90.0284,VALID,0.100563,VALID,23.6434,VALID,355,VALID,0.283594,
2009-01-11, 01:40:04,VALID,1002.15,VALID,0,VALID,89.7614,VALID,0.100563,VALID,23.6823,VALID,355,VALID,0.330859,
2009-01-11, 01:41:04,VALID,1002.1,VALID,0,VALID,89.4639,VALID,0.100563,VALID,23.7017,VALID,336,VALID,0.443359,
2009-01-11, 01:42:04,VALID,1002.11,VALID,0,VALID,89.2732,VALID,0.100563,VALID,23.7389,VALID,3,VALID,0.527344,
2009-01-11, 01:43:04,VALID,1002.09,VALID,0,VALID,89.0214,VALID,0,VALID,23.8185,VALID,351,VALID,0.499609,
2009-01-11, 01:44:04,VALID,1002.09,VALID,0,VALID,88.6857,VALID,0,VALID,23.8787,VALID,352,VALID,0.474609,
2009-01-11, 01:45:04,VALID,1002.08,VALID,0,VALID,88.3348,VALID,0,VALID,23.9159,VALID,351,VALID,0.467187,
2009-01-11, 01:46:04,VALID,1002.05,VALID,0,VALID,87.9991,VALID,0,VALID,23.9761,VALID,349,VALID,1.13789,
2009-01-11, 01:47:04,VALID,1002.04,VALID,0,VALID,87.488,VALID,0,VALID,24.0929,VALID,343,VALID,0.653906,
2009-01-11, 01:48:04,VALID,1002.06,VALID,0,VALID,87.0608,VALID,0,VALID,24.1318,VALID,345,VALID,0.631641,
2009-01-11, 01:49:04,VALID,1002.05,VALID,0,VALID,86.8167,VALID,0,VALID,24.1513,VALID,346,VALID,0.555078,
2009-01-11, 01:50:04,VALID,1002.03,VALID,0,VALID,86.6336,VALID,0,VALID,24.1707,VALID,1,VALID,0.404687,
2009-01-11, 01:51:04,VALID,1002.02,VALID,0,VALID,86.4734,VALID,0,VALID,24.2097,VALID,346,VALID,0.6375,
2009-01-11, 01:52:04,VALID,1001.97,VALID,0,VALID,86.3513,VALID,0,VALID,24.2291,VALID,335,VALID,0.4375,
2009-01-11, 01:53:04,VALID,1001.97,VALID,0,VALID,86.2826,VALID,0,VALID,24.2681,VALID,341,VALID,0.128125,
2009-01-11, 01:54:04,VALID,1001.93,VALID,0,VALID,86.0843,VALID,0,VALID,24.2875,VALID,341,VALID,0.530078,
2009-01-11, 01:55:04,VALID,1001.93,VALID,0,VALID,86.0309,VALID,0.100563,VALID,24.3052,VALID,336,VALID,0.201172,
2009-01-11, 01:56:04,VALID,1001.95,VALID,0,VALID,85.9622,VALID,0.100563,VALID,24.3052,VALID,352,VALID,0.617969,
2009-01-11, 01:57:04,VALID,1001.93,VALID,0,VALID,86.008,VALID,0.100563,VALID,24.3052,VALID,291,VALID,0.308203,
2009-01-11, 01:58:04,VALID,1001.95,VALID,0,VALID,86.0233,VALID,0,VALID,24.2857,VALID,299,VALID,0.621875,
2009-01-11, 01:59:04,VALID,1001.88,VALID,0,VALID,86.0614,VALID,0.100563,VALID,24.3052,VALID,276,VALID,0.211719,
2009-01-11, 02:00:04,VALID,1001.87,VALID,0,VALID,86.0233,VALID,0.100563,VALID,24.3052,VALID,280,VALID,0.273047,
2009-01-11, 02:01:04,VALID,1001.84,VALID,0,VALID,85.9699,VALID,0.100563,VALID,24.3052,VALID,284,VALID,0.170312,
2009-01-11, 02:02:04,VALID,1001.83,VALID,0,VALID,85.9622,VALID,0.100563,VALID,24.3052,VALID,340,VALID,0.450391,
2009-01-11, 02:03:04,VALID,1001.83,VALID,0,VALID,86.0309,VALID,0.100563,VALID,24.2662,VALID,345,VALID,0.3375,
2009-01-11, 02:04:04,VALID,1001.82,VALID,0,VALID,86.1377,VALID,0.100563,VALID,24.2857,VALID,341,VALID,0.460938,
2009-01-11, 02:05:04,VALID,1001.82,VALID,0,VALID,86.0919,VALID,0.100563,VALID,24.2662,VALID,344,VALID,0.239063,
2009-01-11, 02:06:04,VALID,1001.83,VALID,0,VALID,86.1606,VALID,0.100563,VALID,24.2662,VALID,341,VALID,0.571484,
2009-01-11, 02:07:04,VALID,1001.84,VALID,0,VALID,86.1301,VALID,0.100563,VALID,24.2662,VALID,348,VALID,0.548437,
2009-01-11, 02:08:04,VALID,1001.85,VALID,0,VALID,86.1529,VALID,0,VALID,24.2468,VALID,348,VALID,0.158594,
2009-01-11, 02:09:04,VALID,1001.8,VALID,0,VALID,86.2369,VALID,0.100563,VALID,24.2468,VALID,12,VALID,0.217969,
2009-01-11, 02:10:04,VALID,1001.8,VALID,0,VALID,86.3742,VALID,0.100563,VALID,24.2468,VALID,12,VALID,0.144141,
2009-01-11, 02:11:04,VALID,1001.75,VALID,0,VALID,86.1835,VALID,0.100563,VALID,24.2468,VALID,354,VALID,0.515234,
2009-01-11, 02:12:04,VALID,1001.75,VALID,0,VALID,86.069,VALID,0,VALID,24.2681,VALID,337,VALID,0.375781,
2009-01-11, 02:13:04,VALID,1001.72,VALID,0,VALID,86.0843,VALID,0.100563,VALID,24.2468,VALID,4,VALID,0.664844,
2009-01-11, 02:14:04,VALID,1001.73,VALID,0,VALID,86.0919,VALID,0.100563,VALID,24.2662,VALID,354,VALID,0.238281,
2009-01-11, 02:15:04,VALID,1001.72,VALID,0,VALID,86.1224,VALID,0,VALID,24.2662,VALID,337,VALID,0.627344,
2009-01-11, 02:16:04,VALID,1001.73,VALID,0,VALID,86.0538,VALID,0.100563,VALID,24.2662,VALID,340,VALID,0.188672,
2009-01-11, 02:17:04,VALID,1001.69,VALID,0,VALID,86.1377,VALID,0,VALID,24.2255,VALID,340,VALID,0.20625,
2009-01-11, 02:18:04,VALID,1001.7,VALID,0,VALID,86.1758,VALID,0.100563,VALID,24.2468,VALID,340,VALID,0.223438,
2009-01-11, 02:19:04,VALID,1001.67,VALID,0,VALID,86.3208,VALID,0.100563,VALID,24.2273,VALID,340,VALID,0.00117188,
2009-01-11, 02:20:04,VALID,1001.67,VALID,0,VALID,86.3284,VALID,0,VALID,24.1884,VALID,340,VALID,0,
2009-01-11, 02:21:04,VALID,1001.66,VALID,0,VALID,86.5268,VALID,0,VALID,24.1476,VALID,314,VALID,0.35,
2009-01-11, 02:22:04,VALID,1001.66,VALID,0,VALID,86.7022,VALID,0,VALID,24.13,VALID,317,VALID,0.371875,
2009-01-11, 02:23:04,VALID,1001.63,VALID,0,VALID,86.687,VALID,0,VALID,24.1513,VALID,327,VALID,0.3625,
2009-01-11, 02:24:04,VALID,1001.63,VALID,0,VALID,86.7099,VALID,0,VALID,24.1494,VALID,316,VALID,0.205469,
2009-01-11, 02:25:04,VALID,1001.63,VALID,0,VALID,86.7099,VALID,0,VALID,24.1513,VALID,346,VALID,0.675,
2009-01-11, 02:26:04,VALID,1001.59,VALID,0,VALID,86.5878,VALID,0,VALID,24.1707,VALID,337,VALID,0.631641,
2009-01-11, 02:27:04,VALID,1001.55,VALID,0,VALID,86.4581,VALID,0,VALID,24.1902,VALID,344,VALID,0.382813,
2009-01-11, 02:28:04,VALID,1001.53,VALID,0,VALID,86.2826,VALID,0,VALID,24.1902,VALID,350,VALID,0.622266,
2009-01-11, 02:29:04,VALID,1001.5,VALID,0,VALID,86.2369,VALID,0,VALID,24.2291,VALID,343,VALID,0.636719,
2009-01-11, 02:30:04,VALID,1001.48,VALID,0,VALID,86.1529,VALID,0,VALID,24.2291,VALID,344,VALID,0.239844,
2009-01-11, 02:31:04,VALID,1001.49,VALID,0,VALID,86.1453,VALID,0,VALID,24.2078,VALID,345,VALID,0.518359,
2009-01-11, 02:32:04,VALID,1001.46,VALID,0,VALID,86.0995,VALID,0,VALID,24.2291,VALID,347,VALID,0.507813,
2009-01-11, 02:33:04,VALID,1001.46,VALID,0,VALID,86.0156,VALID,0,VALID,24.2504,VALID,346,VALID,0.639844,
2009-01-11, 02:34:04,VALID,1001.45,VALID,0,VALID,85.8631,VALID,0,VALID,24.2699,VALID,356,VALID,1.18359,
2009-01-11, 02:35:04,VALID,1001.44,VALID,0,VALID,85.5732,VALID,0,VALID,24.307,VALID,353,VALID,0.717188,
2009-01-11, 02:36:04,VALID,1001.46,VALID,0,VALID,85.3595,VALID,0,VALID,24.3673,VALID,347,VALID,0.631641,
2009-01-11, 02:37:04,VALID,1001.45,VALID,0,VALID,85.3519,VALID,0,VALID,24.307,VALID,350,VALID,0.507031,
2009-01-11, 02:38:04,VALID,1001.44,VALID,0,VALID,85.4892,VALID,0,VALID,24.2875,VALID,341,VALID,0.892969,
2009-01-11, 02:39:04,VALID,1001.46,VALID,0,VALID,85.3672,VALID,0,VALID,24.3265,VALID,339,VALID,0.588672,
2009-01-11, 02:40:04,VALID,1001.45,VALID,0,VALID,85.2375,VALID,0.100563,VALID,24.3459,VALID,341,VALID,0.4875,
2009-01-11, 02:41:04,VALID,1001.44,VALID,0,VALID,85.3672,VALID,0,VALID,24.3052,VALID,342,VALID,0.0734375,
2009-01-11, 02:42:04,VALID,1001.46,VALID,0,VALID,85.3367,VALID,0.100563,VALID,24.3052,VALID,346,VALID,0.317969,
2009-01-11, 02:43:04,VALID,1001.47,VALID,0,VALID,85.2451,VALID,0.100563,VALID,24.3052,VALID,346,VALID,0.521875,
2009-01-11, 02:44:04,VALID,1001.47,VALID,0,VALID,85.1459,VALID,0.100563,VALID,24.3246,VALID,347,VALID,0.776563,
2009-01-11, 02:45:04,VALID,1001.46,VALID,0,VALID,85.0162,VALID,0.100563,VALID,24.3636,VALID,346,VALID,0.0203125,
2009-01-11, 02:46:04,VALID,1001.49,VALID,0,VALID,85.0162,VALID,0.100563,VALID,24.3441,VALID,350,VALID,0.460938,
2009-01-11, 02:47:04,VALID,1001.5,VALID,0,VALID,85.0544,VALID,0,VALID,24.3033,VALID,277,VALID,0.0921875,
2009-01-11, 02:48:04,VALID,1001.5,VALID,0,VALID,85.1765,VALID,0.100563,VALID,24.3265,VALID,277,VALID,0,
2009-01-11, 02:49:04,VALID,1001.52,VALID,0,VALID,85.3214,VALID,0.100563,VALID,24.2662,VALID,280,VALID,0.0804688,
2009-01-11, 02:50:04,VALID,1001.49,VALID,0,VALID,85.3901,VALID,0.100563,VALID,24.2662,VALID,352,VALID,0.613281,
2009-01-11, 02:51:04,VALID,1001.5,VALID,0,VALID,85.474,VALID,0,VALID,24.2273,VALID,351,VALID,0.323047,
2009-01-11, 02:52:04,VALID,1001.5,VALID,0,VALID,85.7562,VALID,0.100563,VALID,24.1494,VALID,351,VALID,0.344531,
2009-01-11, 02:53:04,VALID,1001.51,VALID,0,VALID,85.9088,VALID,0.100563,VALID,24.1494,VALID,351,VALID,0.480469,
2009-01-11, 02:54:04,VALID,1001.51,VALID,0,VALID,85.8859,VALID,0.100563,VALID,24.13,VALID,351,VALID,0.377344,
2009-01-11, 02:55:04,VALID,1001.52,VALID,0,VALID,85.9699,VALID,0,VALID,24.1318,VALID,351,VALID,0.0277344,
2009-01-11, 02:56:04,VALID,1001.54,VALID,0,VALID,86.0461,VALID,0,VALID,24.0947,VALID,351,VALID,0,
2009-01-11, 02:57:04,VALID,1001.52,VALID,0,VALID,86.2369,VALID,0,VALID,24.015,VALID,351,VALID,0.0492188,
2009-01-11, 02:58:04,VALID,1001.53,VALID,0,VALID,86.5115,VALID,0,VALID,23.9566,VALID,351,VALID,0.0644531,
2009-01-11, 02:59:04,VALID,1001.53,VALID,0,VALID,86.6946,VALID,0,VALID,23.8982,VALID,351,VALID,0,
2009-01-11, 03:00:04,VALID,1001.51,VALID,0,VALID,86.8624,VALID,0,VALID,23.8787,VALID,351,VALID,0,
2009-01-11, 03:01:04,VALID,1001.53,VALID,0,VALID,86.9845,VALID,0,VALID,23.8185,VALID,351,VALID,0.0800781,
2009-01-11, 03:02:04,VALID,1001.51,VALID,0,VALID,87.2362,VALID,0,VALID,23.8027,VALID,351,VALID,0.316797,
2009-01-11, 03:03:04,VALID,1001.5,VALID,0,VALID,87.3812,VALID,0,VALID,23.7035,VALID,351,VALID,0.408203,
2009-01-11, 03:04:04,VALID,1001.49,VALID,0,VALID,87.5414,VALID,0,VALID,23.6452,VALID,351,VALID,0.35625,
2009-01-11, 03:05:04,VALID,1001.47,VALID,0,VALID,87.8771,VALID,0,VALID,23.5089,VALID,351,VALID,0.273828,
2009-01-11, 03:06:04,VALID,1001.49,VALID,0,VALID,88.289,VALID,0,VALID,23.4116,VALID,351,VALID,0.411328,
2009-01-11, 03:07:04,VALID,1001.44,VALID,0,VALID,88.556,VALID,0,VALID,23.3125,VALID,351,VALID,0.462109,
2009-01-11, 03:08:04,VALID,1001.46,VALID,0,VALID,89.0443,VALID,0,VALID,23.2577,VALID,351,VALID,0.294531,
2009-01-11, 03:09:04,VALID,1001.46,VALID,0,VALID,89.4257,VALID,0,VALID,23.2187,VALID,351,VALID,0.440625,
2009-01-11, 03:10:04,VALID,1001.49,VALID,0,VALID,89.5936,VALID,0,VALID,23.1391,VALID,351,VALID,0.449219,
2009-01-11, 03:11:04,VALID,1001.5,VALID,0,VALID,89.8758,VALID,0,VALID,23.1002,VALID,351,VALID,0.405078,
2009-01-11, 03:12:04,VALID,1001.51,VALID,0,VALID,90.2497,VALID,0,VALID,23.0613,VALID,351,VALID,0.156641,
2009-01-11, 03:13:04,VALID,1001.5,VALID,0,VALID,90.4327,VALID,0,VALID,23.0224,VALID,351,VALID,0.232422,
2009-01-11, 03:14:04,VALID,1001.51,VALID,0,VALID,90.4785,VALID,0,VALID,22.9817,VALID,351,VALID,0.00195313,
2009-01-11, 03:15:04,VALID,1001.51,VALID,0,VALID,90.5701,VALID,0,VALID,22.964,VALID,351,VALID,0.00507812,
2009-01-11, 03:16:04,VALID,1001.53,VALID,0,VALID,90.715,VALID,0,VALID,22.9039,VALID,351,VALID,0,
2009-01-11, 03:17:04,VALID,1001.53,VALID,0,VALID,90.7837,VALID,0,VALID,22.8879,VALID,351,VALID,0,
2009-01-11, 03:18:04,VALID,1001.52,VALID,0,VALID,90.8523,VALID,0,VALID,22.8278,VALID,351,VALID,0,
2009-01-11, 03:19:04,VALID,1001.51,VALID,0,VALID,90.9591,VALID,0,VALID,22.7888,VALID,351,VALID,0,
2009-01-11, 03:20:04,VALID,1001.52,VALID,0,VALID,90.9897,VALID,0,VALID,22.7305,VALID,351,VALID,0.332031,
2009-01-11, 03:21:04,VALID,1001.51,VALID,0,VALID,91.2796,VALID,0,VALID,22.6721,VALID,351,VALID,0.269922,
2009-01-11, 03:22:04,VALID,1001.54,VALID,0,VALID,91.5313,VALID,0,VALID,22.6526,VALID,351,VALID,0.0992187,
2009-01-11, 03:23:04,VALID,1001.51,VALID,0,VALID,91.6763,VALID,0,VALID,22.6137,VALID,351,VALID,0.295312,
2009-01-11, 03:24:04,VALID,1001.49,VALID,0,VALID,91.7831,VALID,0,VALID,22.5942,VALID,351,VALID,0.0160156,
2009-01-11, 03:25:04,VALID,1001.5,VALID,0,VALID,91.8822,VALID,0,VALID,22.5553,VALID,351,VALID,0,
2009-01-11, 03:26:04,VALID,1001.5,VALID,0,VALID,92.0653,VALID,0,VALID,22.5359,VALID,351,VALID,0.189453,
2009-01-11, 03:27:04,VALID,1001.47,VALID,0,VALID,92.1874,VALID,0,VALID,22.5147,VALID,351,VALID,0.252344,
2009-01-11, 03:28:04,VALID,1001.49,VALID,0,VALID,92.2408,VALID,0,VALID,22.497,VALID,351,VALID,0.276172,
2009-01-11, 03:29:04,VALID,1001.48,VALID,0,VALID,92.2789,VALID,0,VALID,22.4775,VALID,351,VALID,0.492188,
2009-01-11, 03:30:04,VALID,1001.48,VALID,0,VALID,92.2713,VALID,0,VALID,22.4191,VALID,351,VALID,0.483594,
2009-01-11, 03:31:04,VALID,1001.5,VALID,0,VALID,92.3171,VALID,0,VALID,22.3802,VALID,351,VALID,0.348828,
2009-01-11, 03:32:04,VALID,1001.5,VALID,0,VALID,92.3629,VALID,0,VALID,22.3413,VALID,351,VALID,0.138672,
2009-01-11, 03:33:04,VALID,1001.5,VALID,0,VALID,92.5078,VALID,0,VALID,22.2812,VALID,351,VALID,0,
2009-01-11, 03:34:04,VALID,1001.5,VALID,0,VALID,92.5536,VALID,0,VALID,22.2635,VALID,351,VALID,0,
2009-01-11, 03:35:04,VALID,1001.5,VALID,0,VALID,92.6604,VALID,0,VALID,22.2635,VALID,351,VALID,0,
2009-01-11, 03:36:04,VALID,1001.48,VALID,0,VALID,92.7596,VALID,0,VALID,22.2652,VALID,351,VALID,0,
2009-01-11, 03:37:04,VALID,1001.52,VALID,0,VALID,92.9961,VALID,0,VALID,22.244,VALID,351,VALID,0,
2009-01-11, 03:38:04,VALID,1001.48,VALID,0,VALID,93.1181,VALID,0,VALID,22.244,VALID,351,VALID,0,
2009-01-11, 03:39:04,VALID,1001.5,VALID,0,VALID,93.2478,VALID,0,VALID,22.2635,VALID,351,VALID,0,
2009-01-11, 03:40:04,VALID,1001.48,VALID,0,VALID,93.3775,VALID,0,VALID,22.2829,VALID,351,VALID,0,
2009-01-11, 03:41:04,VALID,1001.52,VALID,0,VALID,93.3851,VALID,0,VALID,22.2635,VALID,351,VALID,0,
2009-01-11, 03:42:04,VALID,1001.5,VALID,0,VALID,93.4233,VALID,0,VALID,22.2423,VALID,351,VALID,0,